056  
FPUS83 KFGF 192310  
OPUFGF  
PRAIRIE TO PINES WEATHER ROUNDUP  
NATIONAL WEATHER SERVICE EASTERN NORTH DAKOTA/GRAND FORKS ND  
600 PM CDT SUN MAY 19 2019  
 
**SATELLITE DATA USED TO AUGMENT SKY COVER AT AUTOMATED STATIONS**  
***** WEATHER ACROSS EASTERN NORTH DAKOTA *****  
 
CITY SKY/WX TMP DP RH WIND PRES REMARKS  
GRAND FORKS PTSUNNY 60 24 25 NE15 29.98S  
GRND FORKS AFB MOSUNNY 59 23 25 VRB8 30.01S  
GRND FORKS NWS N/A 59 28 31 NE13 29.94F  
BUXTON NOT AVBL  
DEVILS LAKE FAIR 58 23 26 NE13G20 30.02F  
FARGO FAIR 55 32 41 N12 29.97S  
WAHPETON ARPT FAIR 46 37 71 NW5 29.99S  

 
 
***** WEATHER ACROSS CENTRAL AND WESTERN NORTH DAKOTA *****  
 
CITY SKY/WX TMP DP RH WIND PRES REMARKS  
JAMESTOWN CLOUDY 53 30 41 NE7 30.00F  
BISMARCK CLOUDY 50 33 52 E6 30.06S  
MINOT FAIR 56 23 27 NE10G20 30.05F  
MINOT AFB FAIR 59 24 26 E13 30.03F  
GARRISON N/A 52 23 32 NE8 30.05F  
WILLISTON FAIR 57 27 31 E9 30.07F  
DICKINSON CLOUDY 49 27 42 E8 30.03  
HETTINGER PTSUNNY 48 28 46 E5 30.05S  

 
 
***** OTHER OBSERVATIONS NORTHEAST NORTH DAKOTA *****  
 
CITY SKY/WX TMP DP RH WIND PRES REMARKS  
WALHALLA FAIR 59 28 31 N20 30.03S  
LANGDON FAIR N/A N/A N/A NE18G26 30.03S  
CAVALIER FAIR 61 21 21 NE15 30.01S  
GRAFTON FAIR 61 25 25 N17 30.01S  
CANDO FAIR 59 25 27 NE15G22 30.05F  
FORT TOTTEN NOT AVBL  
ROLLA FAIR 55 27 33 N14G21 30.07S  
RUGBY FAIR 55 25 30 NE17 30.04S  
***** THE ABOVE OBSERVATIONS ARE NON NWS ARE NOT QUALITY  
CONTROLLED AND MAY MIS-REPORT RAIN FOR SNOW...  

 
 
***** OTHER OBSERVATIONS SOUTHEAST NORTH DAKOTA *****  
 
CITY SKY/WX TMP DP RH WIND PRES REMARKS  
COOPERSTOWN FAIR 57 23 26 NE13 30.00S  
VALLEY CITY CLOUDY 52 30 43 NE8 30.01S  
OAKES CLOUDY 46 41 81 CALM 30.02S  
GWINNER N/A 46 39 76 CALM 30.00F  
SHEYENNE NWR N/A 49 38 66 NW5 29.95  
BUFFALO NOT AVBL  
WYNDMERE NOT AVBL  
***** THE ABOVE OBSERVATIONS ARE NON NWS ARE NOT QUALITY  
CONTROLLED AND MAY MIS-REPORT RAIN FOR SNOW...  

 
 
***** WEATHER ACROSS NORTHERN MINNESOTA *****  
 
CITY SKY/WX TMP DP RH WIND PRES REMARKS  
FLAG ISLAND FAIR 54 28 37 N12 29.99F  
WARROAD FAIR 54 34 47 NE10 30.01S  
ROSEAU FAIR 57 25 28 N16 29.99S  
HALLOCK FAIR 61 21 21 N10G18 29.99S  
THF RVR FALLS FAIR 55 25 31 N13 29.99S  
HALSTAD NOT AVBL  
FOSSTON FAIR 54 28 37 NE7 29.97S  
BAUDETTE FAIR 56 26 31 N17G28 29.98S  
WASKISH FAIR 57 25 28 NE13G21 29.94S  
CROOKSTON FAIR 57 25 28 E10 29.98S  

 
***** WEATHER ACROSS CENTRAL AND WEST MINNESOTA *****  
 
CITY SKY/WX TMP DP RH WIND PRES REMARKS  
BEMIDJI FAIR 54 23 30 NE12G17 29.93S  
PARK RAPIDS CLOUDY 51 24 34 NE9G17 29.93S  
WADENA FAIR 45 34 65 NE5 29.96S  
DETROIT LAKES FAIR 50 30 46 N5 29.97R  
MOORHEAD FAIR 54 34 47 NE7 29.98S  
FERGUS FALLS FAIR 46 36 66 E7 29.96R  
ELBOW LAKE DRIZZLE 43 39 85 NE8 29.99S  
MORRIS MN FAIR 43 37 81 NE15 29.94R  
STAPLES PTSUNNY 41 32 70 CALM 29.97R  
WHEATON DRIZZLE 45 37 76 NE6 30.02S  

 
***** WEATHER ELSEWHERE ACROSS MINNESOTA *****  
 
CITY SKY/WX TMP DP RH WIND PRES REMARKS  
DULUTH CLOUDY 38 34 85 NE9 29.90R  
INTRNTL FALLS FAIR 57 21 24 NE13G23 29.94F  
ELY FAIR 46 21 36 NE7 29.90S  
CLOQUET CLOUDY 37 34 87 N6 29.91S  
BRAINERD CLOUDY 42 33 70 CALM 29.95S  
HIBBING CLOUDY 47 24 40 NE8 29.90F  
ALEXANDRIA CLOUDY 43 34 70 NE13 29.99R  
SAINT CLOUD CLOUDY 40 33 76 N14G28 29.94R  
MINNEAPOLIS LGT RAIN 39 35 86 N16 29.88R  

 
 
***** WEATHER ACROSS SOUTH DAKOTA *****  
 
CITY SKY/WX TMP DP RH WIND PRES REMARKS  
SIOUX FALLS CLOUDY 46 39 76 N12 29.93R  
BROOKINGS LGT RAIN 40 37 89 NE9G18 29.97R  
WATERTOWN CLOUDY 43 38 82 N14G23 29.96R  
HURON CLOUDY 45 38 76 NE16 29.99R  
SISSETON N/A 44 39 82 NE12 30.00R  
ABERDEEN CLOUDY 46 40 79 NE15 30.03R  
MITCHELL CLOUDY 47 39 74 NE10 29.97R  
PIERRE CLOUDY 44 37 76 NE12 30.02R  
MOBRIDGE CLOUDY 49 37 63 N7 30.01F  
RAPID CITY CLOUDY 40 33 76 N9 30.05S  

 
 
***** SOME WEATHER IN NEARBY STATES *****  
 
CITY SKY/WX TMP DP RH WIND PRES REMARKS  
GLASGOW MT CLOUDY 52 27 38 E12 30.07S  
GREAT FALLS MT FAIR 47 32 56 E21G32 29.94S  
CHEYENNE WY CLOUDY 44 33 65 E13 29.92S  
SCOTTSBLUFF NE CLOUDY 50 33 52 E12 29.97S  
OMAHA NE CLOUDY 56 42 59 NW17 29.91R  
DES MOINES IA CLOUDY 54 45 71 W14 29.85R  
DAVENPORT IA CLOUDY 59 53 80 NW18G25 29.76R  
CHICAGO IL PTSUNNY 69 54 58 W23G33 29.64R  
EAU CLAIRE WI CLOUDY 40 36 86 N14G25 29.77R  
LA CROSSE WI LGT RAIN 50 45 83 NW16G31 29.72R  

 
 
***** SOME NATIONAL WEATHER *****  
 
CITY SKY/WX TMP DP RH WIND PRES REMARKS  
LA GUARDIA NY PTSUNNY 71 63 75 S16G25 29.91S  
RALEIGH NC FAIR 85 62 46 SW14 29.98S  
ATLANTA GA PTSUNNY 84 58 40 SW7 30.00S  
NEW ORLEANS LA PTSUNNY 79 70 74 SE8 29.93F  
OKLAHOMA CITY FAIR 76 52 43 E7 29.91F  
ALBUQUERQUE NM CLOUDY 70 19 14 S21 29.85F  
SALT LAKE CITY CLOUDY 55 40 56 S13 29.60F  
LOS ANGELES CA FAIR 62 52 69 W16 29.89F  
BOISE ID CLOUDY 54 49 83 S14 29.55S  
SEATTLE WA FAIR 69 49 48 VRB6 29.72F  

 
 
*** WEATHER ACROSS MANITOBA...SASKATCHEWAN AND ONTARIO ***  
***ONTARIO***  
 
CITY SKY/WX TMP DP RH WIND PRES REMARKS  
GERALDTON PTSUNNY 50 30 46 NE16G22 29.92F  
THUNDER BAY CLOUDY 50 28 43 NE17G25 29.88F  
SIOUX LOOKOUT MOSUNNY 55 27 33 NE5 29.97F  
TORONTO LGT RAIN 66 57 72 S12 29.71R  
BIG TROUT LK SUNNY 54 34 47 VRB7 30.11F  
PICKLE LAKE PTSUNNY 52 34 50 N9G20 30.02F  
DRYDEN SUNNY 55 25 30 NE16G26 29.96F  
KENORA PTSUNNY 57 28 33 NE7G21 29.99F  

 
*** MANITOBA***  
 
CITY SKY/WX TMP DP RH WIND PRES REMARKS  
BRANDON PTSUNNY 57 32 38 E23G30 30.09S  
DAUPHIN MOSUNNY 59 34 38 NE15G24 30.13F  
ISLAND LAKE NOT AVBL  
PILOT MOUND N/A 55 28 35 NE15G21 N/A  
THE PAS SUNNY 61 32 33 N7 30.21F  
THOMPSON MOSUNNY 59 28 31 NE9 30.23F  
WINNIPEG PTSUNNY 61 34 36 NE20G28 30.04F  
LYNN LAKE SUNNY 59 23 25 E6 30.23F  
GILLAM MOSUNNY 50 32 50 NE7 30.26F  

 
***SASKATCHEWAN***  
 
CITY SKY/WX TMP DP RH WIND PRES REMARKS  
ESTEVAN SUNNY 59 27 29 E16G25 30.07F  
KINDERSLEY MOSUNNY 64 23 20 VRB10G24 30.08F  
LLOYDMINSTER SUNNY 61 23 23 SE13G21 30.12F  
PRINCE ALBERT MOSUNNY 61 28 29 E12 30.19F  
REGINA PTSUNNY 59 27 29 E16G23 30.11S  
YORKTON SUNNY 61 30 31 E13G18 30.13F  
N. BATTLEFORD SUNNY 61 27 27 E20G28 30.15F  
 
CLICK HERE TO GO TO PREVIOUS BULLETINS.

The Nexlab ND Page
The Nexlab MN Page Main Text Page